Météo par heure à Juniewicze

Ce jour, 16 Juin, Mercredi

Heure Température Précipitation Vent Pression Humidité
00:00 +16°C° 0 mm 2 m/s 748 mmHg 90%
01:00 +14°C° 0 mm 3 m/s 749 mmHg 92%
02:00 +15°C° 0 mm 2 m/s 749 mmHg 94%
03:00 +15°C° 0 mm 2 m/s 749 mmHg 95%
04:00 +15°C° 0 mm 2 m/s 749 mmHg 96%
05:00 +14°C° 0 mm 2 m/s 749 mmHg 97%
06:00 +15°C° 0 mm 2 m/s 749 mmHg 89%
07:00 +16°C° 0 mm 3 m/s 749 mmHg 82%
08:00 +17°C° 0 mm 3 m/s 750 mmHg 74%
09:00 +18°C° 0 mm 3 m/s 750 mmHg 70%
10:00 +19°C° 0 mm 2 m/s 750 mmHg 67%
11:00 +20°C° 0 mm 2 m/s 750 mmHg 63%
12:00 +21°C° 0 mm 2 m/s 750 mmHg 62%
13:00 +22°C° 0 mm 3 m/s 750 mmHg 61%
14:00 +22°C° 0 mm 3 m/s 750 mmHg 63%
15:00 +22°C° 0 mm 3 m/s 750 mmHg 62%
16:00 +22°C° 0 mm 3 m/s 750 mmHg 60%
17:00 +22°C° 0 mm 3 m/s 750 mmHg 59%
18:00 +21°C° 0 mm 3 m/s 750 mmHg 64%
19:00 +19°C° 0 mm 3 m/s 750 mmHg 69%
20:00 +18°C° 0 mm 2 m/s 750 mmHg 73%
21:00 +17°C° 0 mm 2 m/s 750 mmHg 75%
22:00 +15°C° 0 mm 2 m/s 750 mmHg 76%
23:00 +14°C° 0 mm 2 m/s 751 mmHg 78%

Demain, 17 Juin, Jeudi

Heure Température Précipitation Vent Pression Humidité
00:00 +14°C° 0 mm 2 m/s 751 mmHg 80%
01:00 +13°C° 0 mm 2 m/s 751 mmHg 83%
02:00 +13°C° 0 mm 2 m/s 751 mmHg 85%
03:00 +13°C° 0 mm 2 m/s 751 mmHg 86%
04:00 +13°C° 0 mm 2 m/s 751 mmHg 86%
05:00 +12°C° 0 mm 2 m/s 751 mmHg 87%
06:00 +14°C° 0 mm 2 m/s 751 mmHg 82%
07:00 +16°C° 0 mm 2 m/s 752 mmHg 76%
08:00 +18°C° 0 mm 3 m/s 752 mmHg 71%
09:00 +20°C° 0 mm 3 m/s 752 mmHg 65%
10:00 +21°C° 0 mm 3 m/s 752 mmHg 59%
11:00 +24°C° 0 mm 3 m/s 753 mmHg 53%
12:00 +24°C° 0 mm 3 m/s 752 mmHg 51%
13:00 +25°C° 0 mm 3 m/s 752 mmHg 49%
14:00 +26°C° 0 mm 2 m/s 752 mmHg 47%
15:00 +26°C° 0 mm 2 m/s 752 mmHg 48%
16:00 +26°C° 0 mm 3 m/s 752 mmHg 49%
17:00 +26°C° 0 mm 3 m/s 752 mmHg 50%
18:00 +25°C° 0 mm 3 m/s 752 mmHg 58%
19:00 +23°C° 0 mm 2 m/s 752 mmHg 66%
20:00 +21°C° 0 mm 2 m/s 752 mmHg 73%
21:00 +20°C° 0 mm 2 m/s 752 mmHg 78%
22:00 +19°C° 0 mm 2 m/s 752 mmHg 82%
23:00 +18°C° 0 mm 2 m/s 752 mmHg 86%

Après-demain, 18 Juin, Vendredi

Heure Température Précipitation Vent Pression Humidité
00:00 +17°C° 0 mm 2 m/s 752 mmHg 88%
01:00 +17°C° 0 mm 2 m/s 752 mmHg 90%
02:00 +17°C° 0 mm 2 m/s 752 mmHg 91%
03:00 +17°C° 0 mm 3 m/s 752 mmHg 92%
04:00 +16°C° 0 mm 3 m/s 752 mmHg 92%
05:00 +16°C° 0 mm 3 m/s 752 mmHg 93%
06:00 +18°C° 0 mm 3 m/s 752 mmHg 87%
07:00 +20°C° 0 mm 3 m/s 752 mmHg 80%
08:00 +22°C° 0 mm 4 m/s 752 mmHg 74%
09:00 +23°C° 0 mm 4 m/s 752 mmHg 69%
10:00 +25°C° 0 mm 4 m/s 752 mmHg 65%
11:00 +27°C° 0 mm 5 m/s 752 mmHg 60%
12:00 +27°C° 0 mm 4 m/s 752 mmHg 57%
13:00 +28°C° 0 mm 4 m/s 752 mmHg 55%
14:00 +28°C° 0 mm 4 m/s 752 mmHg 52%
15:00 +28°C° 0 mm 4 m/s 751 mmHg 54%
16:00 +28°C° 0 mm 4 m/s 751 mmHg 55%
17:00 +28°C° 0 mm 4 m/s 751 mmHg 56%
18:00 +27°C° 0 mm 3 m/s 751 mmHg 63%
19:00 +25°C° 0 mm 3 m/s 751 mmHg 70%
20:00 +22°C° 0 mm 3 m/s 751 mmHg 78%
21:00 +21°C° 0 mm 3 m/s 751 mmHg 81%
22:00 +20°C° 0 mm 3 m/s 751 mmHg 84%
23:00 +19°C° 0 mm 3 m/s 751 mmHg 87%

19 Juin, Samedi

Heure Température Précipitation Vent Pression Humidité
00:00 +18°C° 0 mm 3 m/s 751 mmHg 88%
01:00 +18°C° 0 mm 3 m/s 751 mmHg 89%
02:00 +17°C° 0 mm 3 m/s 751 mmHg 90%
03:00 +17°C° 0 mm 3 m/s 751 mmHg 91%
04:00 +17°C° 0 mm 3 m/s 751 mmHg 93%
05:00 +17°C° 0 mm 3 m/s 751 mmHg 94%
06:00 +19°C° 0 mm 3 m/s 751 mmHg 88%
07:00 +21°C° 0 mm 4 m/s 751 mmHg 83%
08:00 +23°C° 0 mm 4 m/s 751 mmHg 77%
09:00 +25°C° 0 mm 4 m/s 751 mmHg 73%
10:00 +26°C° 0 mm 5 m/s 751 mmHg 68%
11:00 +27°C° 0 mm 5 m/s 750 mmHg 63%
12:00 +28°C° 0 mm 5 m/s 750 mmHg 60%
13:00 +29°C° 0 mm 5 m/s 750 mmHg 57%
14:00 +29°C° 0 mm 4 m/s 750 mmHg 54%
15:00 +29°C° 0 mm 4 m/s 750 mmHg 55%
16:00 +29°C° 0 mm 4 m/s 749 mmHg 56%
17:00 +29°C° 0 mm 4 m/s 749 mmHg 58%
18:00 +28°C° 0 mm 3 m/s 749 mmHg 64%
19:00 +26°C° 0 mm 3 m/s 749 mmHg 71%
20:00 +25°C° 0 mm 2 m/s 749 mmHg 78%
21:00 +22°C° 0 mm 3 m/s 749 mmHg 81%
22:00 +21°C° 0 mm 3 m/s 749 mmHg 84%
23:00 +20°C° 0 mm 3 m/s 749 mmHg 86%

20 Juin, Dimanche

Heure Température Précipitation Vent Pression Humidité
00:00 +19°C° 0 mm 3 m/s 749 mmHg 89%
01:00 +19°C° 0 mm 3 m/s 749 mmHg 91%
02:00 +18°C° 0 mm 3 m/s 749 mmHg 94%
03:00 +18°C° 0 mm 3 m/s 749 mmHg 94%
04:00 +17°C° 0 mm 3 m/s 749 mmHg 94%
05:00 +17°C° 0 mm 3 m/s 749 mmHg 95%
06:00 +19°C° 0 mm 3 m/s 749 mmHg 89%
07:00 +20°C° 0 mm 4 m/s 749 mmHg 83%
08:00 +22°C° 0 mm 4 m/s 749 mmHg 77%
09:00 +23°C° 0 mm 4 m/s 749 mmHg 72%
10:00 +25°C° 0 mm 5 m/s 749 mmHg 67%
11:00 +27°C° 0 mm 5 m/s 749 mmHg 61%
12:00 +27°C° 0 mm 5 m/s 748 mmHg 58%
13:00 +28°C° 0 mm 4 m/s 748 mmHg 55%
14:00 +29°C° 0 mm 4 m/s 748 mmHg 52%
15:00 +29°C° 0 mm 4 m/s 748 mmHg 54%
16:00 +28°C° 0 mm 3 m/s 747 mmHg 56%
17:00 +28°C° 0 mm 2 m/s 747 mmHg 58%
18:00 +27°C° 0 mm 2 m/s 747 mmHg 63%
19:00 +26°C° 0 mm 2 m/s 747 mmHg 68%
20:00 +25°C° 0 mm 2 m/s 747 mmHg 72%
21:00 +24°C° 0 mm 2 m/s 747 mmHg 76%
22:00 +22°C° 0 mm 3 m/s 747 mmHg 79%
23:00 +21°C° 0 mm 3 m/s 747 mmHg 82%

21 Juin, Lundi

Heure Température Précipitation Vent Pression Humidité
00:00 +20°C° 0 mm 3 m/s 747 mmHg 85%
01:00 +19°C° 0 mm 3 m/s 747 mmHg 89%
02:00 +19°C° 0 mm 3 m/s 747 mmHg 93%
03:00 +19°C° 0 mm 3 m/s 747 mmHg 93%
04:00 +19°C° 0 mm 3 m/s 747 mmHg 93%
05:00 +18°C° 0 mm 3 m/s 747 mmHg 94%
06:00 +20°C° 0 mm 3 m/s 747 mmHg 87%
07:00 +22°C° 0 mm 4 m/s 747 mmHg 81%
08:00 +25°C° 0 mm 4 m/s 747 mmHg 74%
09:00 +26°C° 0 mm 5 m/s 747 mmHg 69%
10:00 +27°C° 0 mm 5 m/s 747 mmHg 63%
11:00 +28°C° 0 mm 5 m/s 747 mmHg 57%
12:00 +29°C° 0 mm 5 m/s 746 mmHg 54%
13:00 +29°C° 0 mm 5 m/s 746 mmHg 52%
14:00 +30°C° 0 mm 4 m/s 746 mmHg 49%
15:00 +30°C° 0 mm 4 m/s 746 mmHg 51%
16:00 +30°C° 0 mm 4 m/s 746 mmHg 52%
17:00 +30°C° 0 mm 4 m/s 745 mmHg 53%
18:00 +28°C° 0 mm 3 m/s 745 mmHg 61%
19:00 +27°C° 0 mm 3 m/s 745 mmHg 69%
20:00 +25°C° 0 mm 3 m/s 745 mmHg 76%
21:00 +24°C° 0 mm 3 m/s 745 mmHg 78%
22:00 +22°C° 0 mm 3 m/s 745 mmHg 80%
23:00 +22°C° 0 mm 3 m/s 745 mmHg 83%
Voir plus

Nous avons besoin de votre consentement

Meteoprog et ses fournisseurs de services peuvent stocker et accéder à des données personnelles telles que des cookies, des identifiants d'appareils ou d'autres technologies similaires sur votre appareil et traiter ces données pour personnaliser le contenu et les publicités, ainsi que pour fournir des fonctionnalités de médias sociaux et analyser le trafic.

  • Stocker et/ou accéder à des informations sur votre appareil

    Des cookies, des identifiants d'appareils ou d'autres informations peuvent être stockés ou accessibles sur votre appareil aux fins indiquées ci-dessus.

  • Annonces et contenus personnalisés, mesure des annonces et des contenus, connaissance de l'audience et développement de produits

    Les annonces et le contenu peuvent être personnalisés en fonction d'un profil. D'autres données peuvent être ajoutées pour mieux personnaliser les annonces et le contenu. Les performances des publicités et du contenu peuvent être mesurées. Il est possible d'obtenir des informations sur le public qui a vu les publicités et le contenu. Ces données peuvent être utilisées pour développer ou améliorer l'expérience de l'utilisateur, les systèmes et les logiciels.

En cliquant sur "J'accepte", vous autorisez l'utilisation de cookies, des identifiants d'appareils, des balises web ou d'autres technologies similaires. Vos paramètres peuvent être modifiés dans le navigateur de votre appareil.

Dans certains cas, des intérêts légitimes peuvent être invoqués plutôt qu'un consentement. Vous pouvez en savoir plus à ce sujet dans notre Politique de confidentialité et de cookies.